Temp
13 13 12 12 12 12 11 11 11 12 12 12 12 12 11 11 11 11 11 11 11 11 11 11 11 11 11 11 11 11 12 12 12 12 11 11 11 11 11 11 10 10
13 12 12 12 12 11 11 11 11 12 12 12 12 11 11 11 11 11 11 10 10 10 10 11 11 11 11 11 11 11 12 12 12 11 11 11 11 11 11 10 10 9
12 12 12 12 11 11 11 11 11 11 11 11 11 11 10 10 11 11 10 10 10 10 10 10 10 10 11 11 11 11 11 11 11 11 10 11 10 10 10 10 9 9
12 12 12 11 11 11 11 10 11 11 11 11 11 10 10 10 10 10 10 10 10 10 10 10 10 10 10 11 11 11 11 11 10 10 10 10 10 10 10 9 9 8
12 12 11 11 11 11 10 10 10 11 10 10 10 10 10 10 10 10 10 10 9 9 10 10 10 10 10 10 10 10 10 10 10 9 10 10 10 9 9 8 8 7
12 11 11 11 11 11 10 10 10 10 10 10 9 9 10 10 10 10 10 9 9 9 9 9 10 10 10 10 10 10 10 10 10 9 9 9 9 8 8 7 7 7
12 11 11 11 11 10 10 10 10 10 9 9 9 9 9 10 10 10 9 9 9 9 9 9 9 10 10 9 9 9 9 9 9 9 8 8 8 7 7 7 7 7
11 11 11 11 11 10 9 9 10 10 9 9 9 9 9 9 10 9 9 9 9 9 9 9 9 9 9 9 9 9 9 9 9 8 8 7 7 7 7 7 7 6
11 11 11 11 10 10 9 9 9 9 9 8 8 9 9 9 9 9 9 9 8 8 9 9 9 9 9 9 9 9 9 9 8 7 7 7 7 7 7 7 6 6
12 11 11 10 10 10 10 9 9 9 8 8 8 9 9 9 9 9 9 8 8 8 9 9 9 9 9 9 9 9 8 8 8 7 7 7 6 7 7 7 6 6
11 11 10 10 10 10 10 9 9 8 8 8 8 9 9 9 9 9 8 8 8 8 9 9 9 9 9 8 8 8 8 7 7 7 7 7 7 7 7 7 6 6
11 10 10 10 10 10 9 9 8 8 8 8 8 8 9 9 9 9 8 8 8 8 8 8 8 9 8 8 8 8 7 7 7 7 7 7 7 7 7 7 6 6
11 10 10 10 10 10 9 8 8 8 8 8 8 8 8 9 9 9 8 8 8 8 8 8 8 8 8 8 7 7 7 7 7 7 7 7 7 6 6 6 6 6
11 10 10 10 10 9 9 8 8 8 8 8 8 8 8 8 9 8 8 8 8 8 8 8 8 8 8 8 7 7 7 7 7 7 7 7 6 6 6 6 6 6
11 10 10 10 9 9 9 8 8 8 8 8 8 8 9 8 8 8 8 8 8 8 8 8 8 8 8 7 7 7 7 7 7 6 6 6 6 6 6 6 6 6
11 10 10 10 9 9 9 8 8 8 8 8 8 8 8 8 8 8 8 8 8 8 8 8 8 8 7 7 7 7 6 6 6 6 6 6 6 6 6 6 6 6
10 10 10 10 9 9 9 8 8 8 8 8 8 8 8 8 8 8 8 8 8 8 8 8 8 8 7 7 7 7 6 6 6 6 6 6 6 5 5 6 6 6
10 10 10 10 9 9 9 8 8 8 8 8 8 8 8 8 8 8 8 8 8 7 8 8 8 8 7 7 7 7 6 6 6 6 6 6 6 5 5 5 6 6
10 10 10 9 9 9 8 8 8 8 8 8 8 8 8 8 8 8 8 8 8 7 7 8 8 7 7 7 7 6 6 6 6 6 6 6 6 5 5 6 6 6
10 10 10 9 9 9 8 8 7 8 7 7 7 8 8 8 8 8 8 8 8 7 7 7 7 7 7 7 7 6 6 6 6 6 6 6 6 6 6 6 6 6
10 10 9 9 8 8 8 7 7 7 7 7 7 7 8 8 8 8 8 8 8 7 7 7 7 7 7 7 7 6 6 6 6 6 6 6 6 6 6 6 6 6
9 9 8 8 8 7 7 7 7 7 7 7 7 7 7 8 7 7 8 8 8 7 7 7 7 7 7 7 7 6 6 6 6 6 6 6 6 6 6 6 6 6
8 7 7 7 7 7 7 7 7 7 7 7 7 7 7 7 7 7 7 7 7 7 7 7 7 7 7 7 7 6 6 6 6 6 6 6 6 6 6 6 6 5
8 8 7 7 7 7 7 7 7 6 6 6 7 7 7 7 7 7 7 7 7 7 7 7 7 7 7 7 7 7 6 6 6 6 6 6 6 6 6 6 5 5
8 8 9 8 7 7 6 6 6 6 6 6 6 7 7 7 7 7 7 7 7 7 7 7 7 7 7 7 7 7 7 7 7 7 6 6 6 6 6 5 5 5
7 9 9 8 7 7 6 6 6 5 5 5 6 6 6 6 7 7 7 7 7 7 6 6 6 6 6 7 7 7 7 7 7 7 7 6 6 6 5 5 5 5
Height
1544 1546 1547 1548 1550 1551 1551 1552 1552 1553 1553 1553 1553 1553 1553 1554 1556 1557 1558 1559 1559 1560 1560 1560 1561 1562 1562 1562 1563 1563 1563 1563 1564 1564 1564 1564 1564 1563 1563 1562 1562 1561
1543 1545 1546 1547 1548 1549 1550 1551 1551 1552 1552 1552 1552 1552 1553 1554 1556 1557 1558 1558 1559 1559 1560 1561 1561 1562 1562 1562 1563 1563 1563 1564 1564 1564 1564 1564 1564 1563 1563 1562 1562 1562
1543 1544 1545 1546 1547 1548 1549 1550 1551 1551 1551 1551 1552 1552 1553 1554 1555 1556 1557 1558 1558 1559 1560 1561 1561 1561 1562 1562 1563 1563 1564 1564 1564 1564 1564 1564 1563 1563 1563 1563 1563 1563
1542 1543 1545 1546 1546 1547 1548 1549 1550 1550 1550 1551 1551 1552 1553 1553 1555 1556 1556 1557 1558 1559 1560 1560 1561 1561 1562 1562 1563 1564 1564 1564 1564 1564 1564 1564 1564 1564 1564 1564 1564 1563
1542 1543 1544 1545 1546 1546 1547 1548 1549 1549 1549 1550 1550 1551 1552 1553 1554 1555 1556 1557 1558 1559 1560 1560 1561 1562 1562 1563 1563 1564 1564 1564 1564 1564 1564 1564 1564 1564 1564 1564 1564 1564
1541 1542 1543 1544 1545 1546 1546 1547 1548 1548 1548 1549 1550 1551 1552 1553 1554 1555 1556 1557 1558 1559 1560 1560 1561 1562 1562 1563 1563 1563 1564 1564 1564 1564 1564 1564 1565 1564 1564 1564 1564 1564
1539 1540 1541 1543 1544 1544 1545 1546 1546 1547 1547 1548 1549 1550 1551 1552 1553 1554 1555 1556 1557 1559 1560 1560 1561 1562 1562 1563 1563 1563 1563 1564 1564 1565 1565 1565 1565 1565 1564 1564 1565 1565
1538 1539 1540 1541 1542 1543 1544 1544 1545 1546 1547 1547 1548 1549 1550 1551 1553 1554 1555 1556 1557 1558 1559 1560 1561 1561 1562 1562 1563 1563 1564 1564 1564 1565 1565 1565 1565 1565 1565 1565 1565 1565
1536 1537 1538 1539 1541 1541 1542 1543 1544 1545 1546 1546 1547 1548 1550 1551 1552 1553 1555 1556 1557 1558 1559 1560 1561 1561 1562 1562 1563 1563 1564 1564 1565 1565 1565 1565 1565 1565 1565 1566 1566 1565
1534 1535 1537 1537 1539 1540 1540 1541 1542 1544 1545 1545 1546 1547 1549 1550 1551 1553 1554 1555 1556 1558 1559 1560 1560 1561 1561 1562 1563 1563 1564 1564 1565 1565 1565 1565 1566 1566 1566 1566 1566 1565
1532 1533 1534 1535 1537 1538 1539 1540 1541 1542 1543 1544 1545 1547 1548 1549 1550 1552 1553 1555 1556 1557 1558 1559 1560 1561 1561 1562 1563 1563 1564 1564 1565 1565 1565 1565 1566 1566 1566 1566 1566 1565
1529 1530 1532 1533 1535 1536 1537 1538 1539 1541 1542 1543 1544 1546 1547 1548 1550 1551 1553 1554 1555 1557 1558 1559 1559 1560 1561 1562 1563 1563 1564 1564 1564 1565 1565 1565 1566 1566 1566 1566 1565 1565
1526 1528 1530 1531 1533 1534 1535 1536 1538 1539 1540 1542 1544 1545 1546 1547 1549 1550 1552 1553 1555 1556 1557 1558 1559 1560 1561 1562 1562 1563 1563 1564 1564 1565 1565 1565 1565 1566 1565 1565 1565 1565
1524 1526 1528 1530 1531 1532 1534 1535 1536 1538 1539 1541 1543 1544 1545 1547 1548 1550 1551 1552 1554 1555 1556 1557 1558 1559 1560 1561 1562 1563 1563 1564 1564 1564 1565 1565 1565 1565 1565 1565 1565 1565
1522 1524 1526 1527 1529 1530 1532 1533 1535 1537 1538 1540 1541 1542 1544 1546 1547 1549 1550 1552 1553 1554 1555 1556 1557 1559 1560 1561 1562 1562 1563 1563 1564 1564 1564 1565 1565 1565 1565 1565 1565 1565
1520 1522 1524 1525 1527 1528 1530 1531 1533 1535 1537 1538 1540 1541 1543 1545 1546 1548 1549 1551 1552 1553 1554 1555 1557 1558 1559 1560 1561 1562 1562 1563 1563 1564 1564 1564 1565 1565 1565 1565 1565 1565
1518 1520 1521 1523 1525 1527 1528 1530 1532 1533 1535 1537 1538 1540 1542 1543 1545 1547 1548 1550 1551 1552 1553 1555 1556 1557 1558 1559 1560 1561 1562 1562 1563 1563 1563 1564 1564 1564 1564 1564 1565 1565
1516 1518 1519 1521 1523 1525 1527 1528 1530 1532 1534 1536 1537 1539 1541 1542 1544 1546 1547 1549 1550 1551 1553 1554 1555 1557 1557 1558 1559 1560 1561 1562 1562 1562 1563 1563 1564 1564 1564 1564 1565 1565
1514 1516 1517 1519 1521 1523 1525 1527 1529 1531 1533 1535 1536 1538 1540 1541 1543 1544 1546 1547 1549 1550 1552 1553 1554 1556 1556 1557 1558 1559 1560 1561 1561 1562 1562 1563 1563 1563 1564 1564 1564 1565
1512 1514 1515 1518 1519 1521 1523 1525 1527 1530 1532 1533 1535 1536 1538 1540 1542 1543 1545 1546 1548 1549 1551 1552 1553 1554 1555 1556 1557 1558 1559 1560 1561 1561 1562 1562 1562 1563 1563 1564 1564 1564
1510 1512 1513 1515 1517 1520 1522 1524 1526 1528 1530 1532 1534 1535 1537 1539 1541 1542 1544 1545 1547 1548 1549 1551 1552 1553 1554 1555 1556 1558 1558 1559 1560 1560 1561 1561 1562 1562 1563 1563 1564 1564
1508 1510 1512 1514 1516 1518 1520 1522 1525 1527 1529 1531 1532 1534 1536 1538 1539 1541 1543 1544 1546 1547 1548 1550 1551 1552 1553 1554 1555 1557 1557 1558 1559 1560 1560 1561 1561 1561 1562 1563 1563 1563
1508 1512 1515 1517 1517 1517 1518 1520 1522 1525 1527 1529 1531 1533 1534 1536 1538 1539 1541 1543 1545 1546 1547 1548 1549 1551 1552 1553 1554 1555 1556 1557 1558 1559 1559 1560 1560 1561 1561 1562 1562 1562
1507 1513 1517 1518 1517 1516 1517 1519 1521 1524 1526 1528 1530 1531 1533 1535 1536 1538 1540 1542 1543 1545 1546 1547 1548 1549 1551 1552 1553 1554 1555 1556 1557 1558 1558 1559 1560 1560 1560 1561 1561 1561
1506 1510 1513 1516 1516 1516 1518 1520 1522 1524 1526 1527 1529 1531 1532 1534 1535 1537 1538 1540 1542 1543 1545 1546 1547 1548 1549 1551 1552 1553 1554 1555 1556 1556 1557 1558 1559 1559 1560 1560 1560 1560
1504 1508 1511 1513 1515 1516 1518 1520 1522 1524 1526 1527 1528 1529 1531 1532 1534 1535 1537 1538 1540 1541 1543 1545 1546 1547 1548 1550 1551 1552 1552 1554 1554 1555 1556 1557 1557 1558 1559 1559 1559 1559
Wind_Speed
13 12 10 9 8 6 5 4 5 5 5 4 1 2 4 5 5 5 5 5 5 6 7 8 8 8 9 10 11 10 10 10 10 11 11 11 12 12 13 14 14 15
14 13 11 9 8 7 6 5 5 4 4 2 1 2 5 5 5 5 5 5 5 6 7 7 8 9 9 11 11 10 10 9 10 11 10 11 12 12 13 14 14 15
14 13 11 10 9 9 7 6 5 4 2 1 1 3 6 6 5 5 5 5 5 6 7 7 8 9 10 11 10 9 9 9 10 11 10 10 12 12 12 13 13 14
15 14 12 11 10 10 8 6 5 4 2 1 1 4 6 6 5 6 6 6 5 5 7 8 8 9 10 10 9 9 9 9 10 11 10 10 11 11 12 12 13 14
16 15 13 11 12 11 9 6 5 4 2 1 1 4 6 6 6 6 6 6 6 6 7 8 8 9 9 9 9 8 8 9 11 11 10 10 10 10 11 12 13 13
18 16 14 13 13 12 9 7 6 4 2 1 2 5 7 7 6 7 6 6 6 6 7 8 8 9 9 9 8 7 8 9 10 10 9 9 9 10 11 12 13 13
18 16 16 16 14 12 9 7 6 4 3 1 3 7 8 7 7 7 7 7 7 7 8 8 8 8 9 9 8 7 8 9 9 8 7 8 9 10 11 12 12 13
17 17 18 17 14 11 9 7 6 6 4 3 5 8 9 8 8 8 8 8 8 8 8 8 8 8 8 8 8 7 7 7 7 6 6 8 9 9 11 11 12 12
18 19 18 16 14 11 9 8 7 7 5 4 6 9 9 9 9 9 9 9 9 9 9 8 8 7 8 8 7 6 6 6 6 5 6 7 8 9 10 11 11 13
21 20 18 16 13 11 10 10 9 8 6 6 9 10 10 10 10 10 10 10 10 9 8 8 8 7 7 7 7 6 5 5 5 5 6 6 7 8 9 11 12 13
22 20 18 16 13 11 11 11 10 8 7 8 11 11 11 11 11 11 11 11 10 9 8 8 8 7 7 7 6 6 5 4 4 4 5 5 6 8 9 11 13 14
21 19 17 15 13 12 12 11 10 8 8 11 13 12 11 11 11 12 12 12 11 10 9 8 8 7 7 6 6 5 5 4 4 4 4 5 6 8 10 12 13 14
19 18 16 15 14 13 12 12 10 9 11 14 14 13 12 11 12 13 13 13 12 11 10 9 8 7 7 7 6 5 5 4 4 4 4 5 7 9 10 11 13 14
18 17 16 15 14 13 13 12 11 12 14 16 15 13 12 12 12 13 13 13 13 12 11 9 8 7 7 7 7 6 6 5 4 4 5 6 7 9 10 11 12 13
19 19 17 16 15 14 14 13 13 15 17 17 15 14 14 14 14 14 13 14 13 12 11 10 9 8 7 7 7 7 6 6 5 5 5 6 7 8 9 10 11 12
20 20 18 17 16 15 15 15 16 18 19 17 16 15 15 16 16 14 14 14 13 13 12 10 9 9 8 8 7 7 7 6 6 6 6 6 7 7 8 9 10 11
22 21 19 18 17 16 16 18 19 20 19 18 17 16 16 17 16 15 15 15 14 13 12 11 10 9 9 8 8 8 7 7 6 6 6 6 7 7 7 8 9 10
23 21 20 19 18 18 19 21 22 21 20 19 18 17 17 17 17 16 16 16 15 14 13 12 11 10 10 9 8 8 8 7 7 6 6 6 6 6 6 7 8 8
23 22 21 20 19 19 21 22 23 22 20 19 18 18 18 18 18 18 17 17 16 15 14 13 12 11 10 9 9 8 9 8 7 6 6 5 5 5 5 6 6 7
24 23 22 21 20 21 22 24 23 22 21 19 18 18 19 19 19 19 18 18 17 16 15 14 13 12 11 10 10 9 9 9 8 7 6 5 4 4 4 4 5 6
26 25 24 23 21 22 24 25 24 22 21 20 19 19 19 20 19 19 19 18 17 16 16 15 13 13 12 11 10 10 10 9 8 7 6 5 4 3 3 3 4 5
28 27 25 24 22 23 25 25 24 23 21 20 20 20 20 20 20 19 19 18 18 17 16 15 14 13 12 12 11 11 11 10 9 8 7 5 4 3 3 2 2 4
28 25 22 21 21 23 26 26 24 23 21 20 21 21 22 22 21 20 20 19 18 18 17 16 15 14 13 12 12 12 11 11 10 9 8 6 5 3 2 2 1 3
27 21 19 20 21 23 25 25 24 23 21 20 21 22 22 22 21 21 20 19 18 18 17 17 16 15 14 14 13 13 12 11 11 10 9 7 5 4 3 1 1 2
25 19 19 20 21 22 24 24 23 22 20 19 20 21 21 21 21 22 21 20 20 18 18 18 16 15 15 14 14 13 12 12 11 10 9 8 6 5 3 2 1 2
23 19 19 20 20 22 24 23 22 21 20 20 20 21 21 21 22 23 22 22 21 21 20 19 18 16 16 15 14 14 13 12 12 11 10 8 7 5 4 2 1 2
Wind_Direction
187 190 198 207 211 216 222 243 274 293 316 325 320 149 153 154 141 125 110 102 93 89 87 86 90 91 88 85 78 71 67 61 58 59 55 52 52 50 47 44 41 39
193 191 199 209 214 222 231 254 282 295 309 324 8 150 158 155 142 130 116 108 102 94 92 92 94 93 87 82 75 68 65 60 59 59 53 51 52 48 45 43 39 38
197 195 202 212 218 227 239 257 273 271 286 331 137 160 158 153 144 133 122 113 105 99 101 100 97 93 86 81 76 69 66 62 60 59 53 50 50 46 44 42 39 37
196 199 207 214 216 227 243 254 258 252 270 345 154 159 155 154 147 135 125 116 112 111 110 105 99 92 87 84 78 70 67 64 62 60 51 48 48 46 45 42 39 37
198 204 211 215 217 230 245 250 250 249 271 338 153 159 160 160 149 135 126 123 125 123 114 107 102 96 91 86 79 73 70 66 64 59 49 47 49 48 46 44 41 39
202 209 213 213 219 233 244 242 241 244 263 302 165 168 167 162 147 135 133 136 135 127 117 111 106 102 93 86 81 77 74 68 65 59 49 50 52 50 49 47 43 41
208 211 211 213 221 234 239 237 237 239 253 249 181 174 169 160 148 144 145 145 140 131 123 116 110 105 96 89 83 78 76 71 67 63 55 55 55 52 52 49 46 43
211 210 210 216 225 233 233 232 234 235 239 221 183 175 169 161 156 154 151 148 145 137 130 123 117 109 99 93 84 79 79 76 74 72 63 58 56 53 52 50 47 44
210 209 213 222 227 229 228 227 229 229 225 200 179 176 172 167 161 157 155 152 148 143 136 129 123 114 104 96 89 84 85 85 86 80 67 61 58 55 54 51 48 46
208 212 219 224 223 223 224 225 226 224 213 188 176 177 178 172 164 159 159 157 151 148 144 135 128 119 109 103 99 98 99 98 93 79 68 67 63 60 57 53 50 47
211 216 220 219 218 221 223 224 223 219 205 183 177 179 179 175 168 163 161 158 154 153 149 140 134 124 115 113 112 115 119 111 96 78 70 72 69 65 60 55 51 47
212 215 215 213 216 221 223 223 220 213 196 181 178 180 179 175 170 166 163 160 158 158 155 148 142 133 127 126 125 129 131 116 97 81 73 75 74 69 62 56 52 47
212 215 214 214 217 220 222 221 215 204 187 180 180 180 178 176 171 169 166 164 163 163 160 155 148 144 140 137 138 140 134 119 105 91 81 79 75 69 62 56 52 48
215 216 214 214 216 218 220 218 210 195 182 181 184 179 176 176 174 173 170 168 168 167 164 160 156 155 151 146 148 146 138 130 117 101 91 86 78 69 61 55 52 48
217 216 213 213 215 217 218 214 203 190 181 182 184 180 179 178 175 176 176 173 172 169 167 166 163 164 160 154 151 146 143 140 126 111 101 91 80 69 61 56 51 48
217 215 212 213 215 216 216 209 196 185 182 184 183 182 183 180 176 177 179 178 176 172 171 171 171 171 168 161 154 150 148 144 131 116 105 96 85 71 61 56 51 46
218 215 213 214 215 215 212 203 191 184 184 185 184 185 185 181 179 180 180 180 178 175 175 176 177 175 172 168 160 154 154 149 138 125 110 101 89 75 62 55 51 46
218 215 215 215 214 213 207 197 187 184 186 186 187 188 186 183 182 183 183 180 176 177 180 181 183 180 175 173 166 161 162 157 148 137 121 108 95 82 68 56 50 45
221 218 218 216 212 210 203 193 186 185 188 188 188 188 187 186 186 185 185 182 177 178 182 183 185 184 179 175 172 169 169 164 159 149 135 121 105 90 73 62 55 48
221 219 218 215 211 206 198 190 186 187 188 189 188 187 187 188 188 187 186 184 181 181 183 185 187 186 182 179 178 177 174 170 166 158 148 136 121 103 82 71 62 53
223 221 218 214 208 203 196 190 188 189 190 189 188 188 188 189 190 189 186 184 183 183 184 187 188 187 185 183 183 182 177 173 170 166 161 151 137 123 98 81 67 56
220 216 213 208 204 200 195 190 190 191 190 190 189 188 190 190 190 190 188 186 185 185 186 188 189 188 187 187 186 184 179 176 174 173 171 165 157 146 117 96 69 53
214 213 212 210 207 202 195 191 191 191 191 192 192 191 191 189 189 189 189 188 188 188 188 189 190 189 188 188 187 183 178 177 176 176 178 176 173 167 140 114 74 52
217 217 221 219 215 207 198 193 192 193 193 193 194 194 192 189 188 189 189 188 189 191 191 190 190 190 189 188 186 181 176 176 178 178 180 181 181 179 166 147 103 48
212 213 222 223 217 210 202 197 194 195 196 194 193 194 192 190 190 189 189 187 187 191 192 191 190 191 191 190 186 181 176 177 179 179 180 182 182 181 178 173 152 45
204 209 221 220 214 208 204 200 199 200 200 196 194 192 193 194 192 190 190 188 188 191 193 192 191 191 193 193 188 182 179 180 181 180 179 180 180 181 184 186 159 48